WA6MEM Weather Reports


time (UTC)temp
C
wind
direction
speed
KPH
gust
KPH
rain 1hr
cm
rain 24hr
cm
rain mn
cm
humidity
%
barometer
mb
20260906203049 18 355 8.0 0.0 0.00 0.00 1.02 97 1011.5
20260906202548 18 24 8.0 0.0 0.00 0.00 1.02 97 1011.8
20260906202048 18 9 11.3 0.0 0.00 0.00 1.02 97 1011.8
20260906201600 18 5 9.7 0.0 0.00 0.00 1.02 97 1011.8
20260906201049 18 360 11.3 0.0 0.00 0.00 0.99 97 1012.2
20260906200548 18 360 11.3 0.0 0.00 0.00 0.99 97 1012.2
20260906200050 18 5 9.7 0.0 0.00 0.00 0.99 97 1012.2
20260906195549 18 5 9.7 0.0 0.00 0.00 0.99 97 1012.3
20260906195049 18 13 9.7 0.0 0.00 0.00 0.99 97 1012.3
20260906194547 18 349 9.7 0.0 0.00 0.00 0.99 97 1012.3
20260906194046 18 14 8.0 0.0 0.00 0.00 0.99 97 1012.9
20260906193550 18 360 8.0 0.0 0.00 0.00 0.97 97 1012.9
20260906193047 18 20 8.0 0.0 0.00 0.00 0.97 97 1012.9
20260906192546 18 24 8.0 0.0 0.00 0.00 0.97 97 1013.2
20260906192046 17 350 8.0 0.0 0.00 0.00 0.97 97 1013.2
20260906191547 17 5 8.0 0.0 0.00 0.00 0.97 97 1013.2
20260906191045 17 360 11.3 0.0 0.00 0.00 0.97 97 1012.7
20260906190549 17 5 12.9 0.0 0.00 0.00 0.97 97 1012.7
20260906190046 18 17 11.3 0.0 0.00 0.00 0.97 97 1012.7
20260906185548 18 24 9.7 0.0 0.00 0.00 0.94 97 1012.9
20260906185045 18 5 9.7 0.0 0.00 0.00 0.94 97 1012.9
20260906184545 17 5 9.7 0.0 0.00 0.00 0.94 97 1012.9
20260906184048 17 17 8.0 0.0 0.00 0.00 0.94 97 1013.8
20260906183545 17 360 8.0 0.0 0.00 0.00 0.94 97 1013.8
20260906183046 17 19 6.4 0.0 0.00 0.00 0.91 97 1013.8
20260906182544 17 355 8.0 0.0 0.00 0.00 0.91 96 1013.9
20260906182044 17 5 8.0 0.0 0.00 0.00 0.91 96 1013.9
20260906181546 17 13 8.0 0.0 0.00 0.00 0.91 96 1013.9
20260906181043 17 19 8.0 0.0 0.00 0.00 0.89 96 1013.9
20260906180544 17 5 8.0 0.0 0.00 0.00 0.89 96 1013.9
20260906180058 17 360 9.7 0.0 0.00 0.00 0.89 96 1013.9
20260906175546 17 12 12.9 0.0 0.00 0.00 0.86 96 1013.2
20260906175042 18 360 12.9 0.0 0.00 0.00 0.86 96 1013.2
20260906174542 18 25 9.7 0.0 0.00 0.00 0.86 96 1013.2
20260906174044 18 5 8.0 0.0 0.00 0.00 0.84 96 1013.6
20260906173542 18 355 6.4 0.0 0.00 0.00 0.84 96 1013.6
20260906173042 18 360 6.4 0.0 0.00 0.00 0.81 95 1013.6
20260906172544 18 360 8.0 0.0 0.00 0.00 0.79 95 1013.2
20260906172041 18 360 8.0 0.0 0.00 0.00 0.79 95 1013.2
20260906171542 18 5 4.8 0.0 0.00 0.00 0.76 95 1013.2
20260906171041 18 5 3.2 0.0 0.00 0.00 0.71 95 1013.9
20260906170541 18 23 1.6 0.0 0.00 0.00 0.71 95 1013.9
20260906170041 18 119 0.0 0.0 0.00 0.00 0.69 95 1013.9
20260906165541 18 22 0.0 0.0 0.00 0.00 0.64 95 1012.9
20260906165040 18 22 1.6 0.0 0.00 0.00 0.56 95 1012.9
20260906164540 18 22 4.8 0.0 0.00 0.00 0.51 95 1012.9
20260906164039 18 23 4.8 0.0 0.00 0.00 0.51 95 1012.9
20260906163539 18 11 1.6 0.0 0.00 0.00 0.48 95 1012.9
20260906163039 17 78 0.0 0.0 0.00 0.00 0.46 94 1012.9
20260906162539 17 142 0.0 0.0 0.00 0.00 0.43 94 1012.9
20260906162039 17 142 1.6 0.0 0.00 0.00 0.41 94 1012.9
20260906161545 17 142 1.6 0.0 0.00 0.00 0.41 93 1012.9
20260906161038 17 142 1.6 0.0 0.00 0.00 0.38 93 1013.2
20260906160538 17 186 0.0 0.0 0.00 0.00 0.36 93 1013.2
20260906160038 17 186 1.6 0.0 0.00 0.00 0.36 92 1013.2
20260906155538 17 186 3.2 0.0 0.00 0.00 0.33 92 1013.1
20260906155040 17 217 3.2 0.0 0.00 0.00 0.30 92 1013.1
20260906154543 18 200 3.2 0.0 0.00 0.00 0.23 92 1013.1
20260906154037 18 180 3.2 0.0 0.00 0.00 0.18 92 1012.6
20260906153536 18 179 3.2 0.0 0.00 0.00 0.18 94 1012.6
20260906153037 18 198 1.6 0.0 0.00 0.00 0.15 94 1012.6
20260906152535 18 193 1.6 0.0 0.00 0.00 0.15 94 1012.3
20260906152035 17 82 1.6 0.0 0.00 0.00 0.13 94 1012.3
20260906151536 17 74 0.0 0.0 0.00 0.00 0.13 93 1012.3
20260906151036 16 53 1.6 0.0 0.00 0.00 0.10 91 1012.0
20260906150534 16 53 3.2 0.0 0.00 0.00 0.10 91 1012.0
20260906150046 16 46 4.8 0.0 0.00 0.00 0.10 90 1012.0
20260906145535 16 42 4.8 0.0 0.00 0.00 0.10 90 1012.0
20260906145034 16 360 6.4 0.0 0.00 0.00 0.10 89 1012.0
20260906144533 16 5 6.4 0.0 0.00 0.00 0.10 89 1012.0
20260906144032 16 360 8.0 0.0 0.00 0.00 0.08 88 1011.9
20260906143532 16 11 8.0 0.0 0.00 0.00 0.08 90 1011.9
20260906143032 16 9 8.0 0.0 0.00 0.00 0.08 91 1011.9
20260906142534 16 42 9.7 0.0 0.00 0.00 0.08 91 1011.9
20260906142032 16 360 8.0 0.0 0.00 0.00 0.08 91 1011.9
20260906141531 16 355 6.4 0.0 0.00 0.00 0.08 90 1011.9
20260906141030 16 22 4.8 0.0 0.00 0.00 0.08 89 1011.9
20260906140531 16 17 4.8 0.0 0.00 0.00 0.08 89 1011.9
20260906140035 16 48 6.4 0.0 0.00 0.00 0.08 89 1011.9
20260906135529 16 13 8.0 0.0 0.00 0.00 0.08 89 1011.4
20260906135029 16 24 9.7 0.0 0.00 0.00 0.08 88 1011.4
20260906134526 16 32 9.7 0.0 0.00 0.00 0.08 88 1011.4
20260906134025 17 5 9.7 0.0 0.00 0.00 0.05 88 1011.0
20260906133524 17 5 9.7 0.0 0.00 0.00 0.05 87 1011.0
20260906133025 17 30 9.7 0.0 0.00 0.00 0.05 86 1011.0
20260906132521 18 11 8.0 0.0 0.00 0.00 0.05 83 1011.5
20260906132019 18 355 3.2 0.0 0.00 0.00 0.03 75 1011.5
20260906131518 18 5 0.0 0.0 0.00 0.00 0.03 71 1011.5
20260906131017 18 32 0.0 0.0 0.00 0.00 0.03 71 1011.3
20260906130517 18 29 0.0 0.0 0.00 0.00 0.03 71 1011.3
20260906130026 18 9 0.0 0.0 0.00 0.00 0.03 72 1011.3
20260906125515 18 14 0.0 0.0 0.00 0.00 0.03 71 1011.1
20260906125019 18 26 0.0 0.0 0.00 0.00 0.03 68 1011.1
20260906124512 18 338 0.0 0.0 0.00 0.00 0.03 64 1011.1
20260906124011 19 17 0.0 0.0 0.00 0.00 0.03 64 1011.0
20260906123509 20 26 0.0 0.0 0.00 0.00 0.03 60 1011.0
20260906123016 20 312 0.0 0.0 0.00 0.00 0.00 57 1011.0
20260906122512 20 277 0.0 0.0 0.00 0.00 0.00 53 1011.0
20260906122008 20 306 0.0 0.0 0.00 0.00 0.00 57 1011.0
20260906121507 20 138 0.0 0.0 0.00 0.00 0.00 60 1011.0
20260906121007 20 138 0.0 0.0 0.00 0.00 0.00 51 1010.6
20260906120506 20 138 0.0 0.0 0.00 0.00 0.00 55 1010.6
20260906120005 21 127 0.0 0.0 0.00 0.00 0.00 57 1010.6
20260906115503 21 76 0.0 0.0 0.00 0.00 0.00 57 1010.3
20260906115001 21 53 0.0 0.0 0.00 0.00 0.00 49 1010.3
20260906114505 22 53 0.0 0.0 0.00 0.00 0.00 46 1010.3
20260906114002 22 53 0.0 0.0 0.00 0.00 0.00 41 1010.2
20260906113600 22 53 0.0 0.0 0.00 0.00 0.00 43 1010.2
20260906113100 22 53 0.0 0.0 0.00 0.00 0.00 44 1010.2
20260906112600 22 53 0.0 0.0 0.00 0.00 0.00 42 1010.3
20260906112100 22 53 0.0 0.0 0.00 0.00 0.00 37 1010.3
20260906111617 22 53 0.0 0.0 0.00 0.00 0.00 35 1010.3
20260906111059 22 53 0.0 0.0 0.00 0.00 0.00 36 1010.1
20260906110559 22 53 0.0 0.0 0.00 0.00 0.00 38 1010.1
20260906110100 22 53 0.0 0.0 0.00 0.00 0.00 40 1010.1
20260906105559 22 53 0.0 0.0 0.00 0.00 0.00 37 1010.1
20260906105102 22 53 0.0 0.0 0.00 0.00 0.00 38 1010.1
20260906104558 22 53 0.0 0.0 0.00 0.00 0.00 37 1010.1
20260906104057 22 53 0.0 0.0 0.00 0.00 0.00 38 1010.2
20260906103558 22 53 0.0 0.0 0.00 0.00 0.00 39 1010.2
20260906103057 22 53 0.0 0.0 0.00 0.00 0.00 39 1010.2
20260906102558 22 53 0.0 0.0 0.00 0.00 0.00 37 1010.2
20260906102057 22 53 0.0 0.0 0.00 0.00 0.00 38 1010.2
20260906101557 22 53 0.0 0.0 0.00 0.00 0.00 38 1010.2
20260906101056 22 53 0.0 0.0 0.00 0.00 0.00 41 1010.3
20260906100556 22 53 0.0 0.0 0.00 0.00 0.00 38 1010.3
20260906095556 22 53 0.0 0.0 0.00 0.00 0.00 38 1010.3
20260906095056 22 53 0.0 0.0 0.00 0.00 0.00 36 1010.3
20260906094559 22 53 0.0 0.0 0.00 0.00 0.00 37 1010.3
20260906094055 22 53 0.0 0.0 0.00 0.00 0.00 37 1010.3
20260906093555 22 53 0.0 0.0 0.00 0.00 0.00 37 1010.3
20260906093055 22 53 0.0 0.0 0.00 0.00 0.00 37 1010.3
20260906092556 22 53 0.0 0.0 0.00 0.00 0.00 39 1010.4
20260906092055 22 53 0.0 0.0 0.00 0.00 0.00 39 1010.4
20260906091553 22 53 0.0 0.0 0.00 0.00 0.00 37 1010.4
20260906091054 22 53 0.0 0.0 0.00 0.00 0.00 37 1010.3
20260906090553 22 53 0.0 0.0 0.00 0.00 0.00 38 1010.3
20260906090056 22 53 0.0 0.0 0.00 0.00 0.00 38 1010.3
20260906085554 21 53 0.0 0.0 0.00 0.00 0.00 38 1010.3
20260906085053 21 53 0.0 0.0 0.00 0.00 0.00 37 1010.3
20260906084557 21 53 0.0 0.0 0.00 0.00 0.00 38 1010.3
20260906084053 21 53 0.0 0.0 0.00 0.00 0.00 40 1010.4
20260906083552 21 53 0.0 0.0 0.00 0.00 0.00 37 1010.4
20260906083051 21 53 0.0 0.0 0.00 0.00 0.00 38 1010.4
20260906082550 21 53 0.0 0.0 0.00 0.00 0.00 38 1010.5
20260906082050 21 53 0.0 0.0 0.00 0.00 0.00 38 1010.5
20260906081550 21 53 0.0 0.0 0.00 0.00 0.00 37 1010.5
20260906081049 22 53 0.0 0.0 0.00 0.00 0.00 39 1010.7
20260906080550 22 53 0.0 0.0 0.00 0.00 0.00 38 1010.7
20260906080055 22 53 0.0 0.0 0.00 0.00 0.00 37 1010.7
20260906075553 22 53 0.0 0.0 0.00 0.00 0.00 37 1010.6
20260906075049 21 53 0.0 0.0 0.00 0.00 0.00 36 1010.6
20260906074551 21 53 0.0 0.0 0.00 0.00 0.00 36 1010.6
20260906074047 22 53 0.0 0.0 0.00 0.00 0.00 35 1010.8
20260906073547 22 53 0.0 0.0 0.00 0.00 0.00 37 1010.8
20260906073048 22 53 0.0 0.0 0.00 0.00 0.00 36 1010.8
20260906072546 22 53 0.0 0.0 0.00 0.00 0.00 36 1010.8
20260906072046 22 53 0.0 0.0 0.00 0.00 0.00 38 1010.8
20260906071546 22 53 0.0 0.0 0.00 0.00 0.00 37 1010.8
20260906071045 22 53 0.0 0.0 0.00 0.00 0.00 37 1010.6
20260906070547 22 53 0.0 0.0 0.00 0.00 0.00 36 1010.6
20260906070043 22 53 0.0 0.0 0.00 0.00 0.03 36 1010.6
20260906065544 22 53 0.0 0.0 0.00 0.00 0.03 36 1010.5
20260906065043 22 53 0.0 0.0 0.00 0.00 0.03 37 1010.5
20260906064542 22 53 1.6 0.0 0.00 0.00 0.03 37 1010.5
20260906064043 22 53 3.2 0.0 0.00 0.00 0.03 37 1010.4
20260906063546 22 53 3.2 0.0 0.00 0.00 0.03 37 1010.4
20260906063045 22 53 3.2 0.0 0.00 0.00 0.03 37 1010.4
20260906062541 22 49 1.6 0.0 0.00 0.00 0.03 36 1010.4
20260906062041 22 273 0.0 0.0 0.00 0.00 0.03 36 1010.4
20260906061541 22 273 1.6 0.0 0.00 0.00 0.03 37 1010.4
20260906061040 22 282 3.2 0.0 0.00 0.00 0.03 37 1010.6
20260906060541 23 279 3.2 0.0 0.00 0.00 0.03 37 1010.6
20260906060041 22 258 3.2 0.0 0.00 0.00 0.03 36 1010.6
20260906055541 22 266 4.8 0.0 0.00 0.00 0.03 37 1010.6
20260906055040 22 274 4.8 0.0 0.00 0.00 0.03 37 1010.6
20260906054558 22 279 3.2 0.0 0.00 0.00 0.03 37 1010.6
20260906054040 22 272 3.2 0.0 0.00 0.00 0.03 37 1010.9
20260906053538 22 305 4.8 0.0 0.00 0.00 0.03 37 1010.9
20260906053039 22 292 4.8 0.0 0.00 0.00 0.03 38 1010.9
20260906052539 22 296 4.8 0.0 0.00 0.00 0.03 39 1011.0
20260906052039 22 267 4.8 0.0 0.00 0.00 0.03 39 1011.0
20260906051538 22 242 4.8 0.0 0.00 0.00 0.03 39 1011.0
20260906051039 22 262 4.8 0.0 0.00 0.00 0.03 39 1011.2
20260906050541 22 279 4.8 0.0 0.00 0.00 0.03 39 1011.2
20260906050040 22 246 4.8 0.0 0.00 0.00 0.03 40 1011.2
20260906045539 22 248 3.2 0.0 0.00 0.00 0.03 40 1011.2
20260906045038 22 262 3.2 0.0 0.00 0.00 0.03 40 1011.2
20260906044538 21 266 3.2 0.0 0.00 0.00 0.03 40 1011.2
20260906044039 21 294 3.2 0.0 0.00 0.00 0.03 40 1011.2
20260906043537 21 273 3.2 0.0 0.00 0.00 0.03 41 1011.2
20260906043037 21 281 3.2 0.0 0.00 0.00 0.03 41 1011.2
20260906042537 21 290 3.2 0.0 0.00 0.00 0.03 42 1011.1
20260906042037 21 277 3.2 0.0 0.00 0.00 0.03 42 1011.1
20260906041536 21 304 3.2 0.0 0.00 0.00 0.03 42 1011.1
20260906041038 21 270 3.2 0.0 0.00 0.00 0.03 42 1010.9
20260906040537 21 286 3.2 0.0 0.00 0.00 0.03 44 1010.9
20260906040045 22 277 1.6 0.0 0.00 0.00 0.03 43 1010.9
20260906035537 22 276 1.6 0.0 0.00 0.00 0.03 41 1010.8
20260906035036 22 277 1.6 0.0 0.00 0.00 0.03 40 1010.8
20260906034547 22 274 1.6 0.0 0.00 0.00 0.03 39 1010.8
20260906034035 22 260 1.6 0.0 0.00 0.00 0.03 38 1010.8
20260906033535 22 266 1.6 0.0 0.00 0.00 0.03 39 1010.8
20260906033035 22 301 1.6 0.0 0.00 0.00 0.03 39 1010.8
20260906032537 22 269 0.0 0.0 0.00 0.00 0.03 38 1010.7
20260906032035 22 295 0.0 0.0 0.00 0.00 0.03 39 1010.7
20260906031601 22 295 0.0 0.0 0.00 0.00 0.03 39 1010.7
20260906031039 22 295 1.6 0.0 0.00 0.00 0.03 39 1010.7
20260906030535 22 278 1.6 0.0 0.00 0.00 0.03 38 1010.7
20260906030035 22 297 1.6 0.0 0.00 0.00 0.03 38 1010.7
20260906025534 22 250 1.6 0.0 0.00 0.00 0.03 39 1010.5
20260906025034 22 270 1.6 0.0 0.00 0.00 0.03 40 1010.5
20260906024553 22 277 3.2 0.0 0.00 0.00 0.03 41 1010.5
20260906024035 22 297 3.2 0.0 0.00 0.00 0.03 43 1010.6
20260906023532 22 236 4.8 0.0 0.00 0.00 0.03 44 1010.6
20260906023036 22 234 4.8 0.0 0.00 0.00 0.03 44 1010.6
20260906022531 22 278 4.8 0.0 0.00 0.00 0.03 46 1010.7
20260906022031 22 291 3.2 0.0 0.00 0.00 0.03 48 1010.7
20260906021531 22 255 3.2 0.0 0.00 0.00 0.03 54 1010.7
20260906021029 22 237 3.2 0.0 0.00 0.00 0.03 55 1010.9
20260906020534 22 260 1.6 0.0 0.00 0.00 0.03 56 1010.9
20260906020029 22 274 1.6 0.0 0.00 0.00 0.03 59 1010.9
20260906015530 22 202 3.2 0.0 0.00 0.00 0.03 62 1010.8
20260906015029 22 184 3.2 0.0 0.00 0.00 0.03 63 1010.8
20260906014529 22 226 3.2 0.0 0.00 0.00 0.03 64 1010.8
20260906014029 22 201 3.2 0.0 0.00 0.00 0.03 66 1010.8
20260906013528 22 199 3.2 0.0 0.00 0.00 0.03 64 1010.8
20260906013028 22 205 4.8 0.0 0.00 0.00 0.03 63 1010.8
20260906012528 23 207 4.8 0.0 0.00 0.00 0.03 67 1010.6
20260906012028 23 238 4.8 0.0 0.00 0.00 0.03 65 1010.6
20260906011529 24 259 3.2 0.0 0.00 0.00 0.03 61 1010.6
20260906011028 24 209 1.6 0.0 0.00 0.00 0.03 58 1010.5
20260906010529 24 187 1.6 0.0 0.00 0.00 0.03 56 1010.5
20260906010043 23 294 3.2 0.0 0.00 0.00 0.03 59 1010.5
20260906005527 23 260 3.2 0.0 0.00 0.00 0.03 64 1010.7
20260906005028 23 215 3.2 0.0 0.00 0.00 0.03 66 1010.7
20260906004526 24 235 3.2 0.0 0.00 0.00 0.03 65 1010.7
20260906004026 24 178 3.2 0.0 0.00 0.00 0.03 66 1010.6
20260906003527 24 213 1.6 0.0 0.00 0.00 0.03 66 1010.6
20260906003027 24 194 3.2 0.0 0.00 0.00 0.03 63 1010.6
20260906002527 25 148 3.2 0.0 0.00 0.00 0.03 63 1010.5
20260906002026 25 173 3.2 0.0 0.00 0.00 0.03 64 1010.5
20260906001533 25 167 3.2 0.0 0.00 0.00 0.03 62 1010.5
20260906001026 25 179 3.2 0.0 0.00 0.00 0.03 60 1010.5
20260906000526 25 166 3.2 0.0 0.00 0.00 0.03 58 1010.5
20260906000026 25 172 3.2 0.0 0.00 0.00 0.03 57 1010.5
20260905235526 25 170 3.2 0.0 0.00 0.00 0.03 55 1010.6
20260905235028 25 215 3.2 0.0 0.00 0.00 0.03 58 1010.6
20260905234525 26 154 4.8 0.0 0.00 0.00 0.03 56 1010.6
20260905234025 26 205 4.8 0.0 0.00 0.00 0.03 52 1010.7
20260905233525 25 170 4.8 0.0 0.00 0.00 0.03 53 1010.7
20260905233025 25 181 4.8 0.0 0.00 0.00 0.03 51 1010.7
20260905232525 25 207 4.8 0.0 0.00 0.00 0.03 54 1010.5
20260905232025 26 183 4.8 0.0 0.00 0.00 0.03 55 1010.5
20260905231525 26 173 3.2 0.0 0.00 0.00 0.03 53 1010.5
20260905231025 26 141 3.2 0.0 0.00 0.00 0.03 52 1010.6
20260905230524 26 186 3.2 0.0 0.00 0.00 0.03 50 1010.6
20260905230031 26 176 3.2 0.0 0.00 0.00 0.03 53 1010.6
20260905225526 26 169 3.2 0.0 0.00 0.00 0.03 51 1010.7
20260905225023 26 144 3.2 0.0 0.00 0.00 0.03 57 1010.7
20260905224523 26 148 4.8 0.0 0.00 0.00 0.03 51 1010.7
20260905224022 27 182 3.2 0.0 0.00 0.00 0.03 51 1010.9
20260905223522 26 169 3.2 0.0 0.00 0.00 0.03 50 1010.9
20260905223021 26 206 3.2 0.0 0.00 0.00 0.03 49 1010.9
20260905222522 26 170 3.2 0.0 0.00 0.00 0.03 51 1011.1
20260905222021 26 195 3.2 0.0 0.00 0.00 0.03 51 1011.1
20260905221520 26 152 3.2 0.0 0.00 0.00 0.03 49 1011.1
20260905221021 26 169 3.2 0.0 0.00 0.00 0.03 58 1011.1
20260905220520 26 174 4.8 0.0 0.00 0.00 0.03 56 1011.1
20260905220023 26 182 4.8 0.0 0.00 0.00 0.03 55 1011.1
20260905215520 26 170 4.8 0.0 0.00 0.00 0.03 61 1011.1
20260905215020 26 155 4.8 0.0 0.00 0.00 0.03 61 1011.1
20260905214519 26 360 3.2 0.0 0.00 0.00 0.03 49 1011.1
20260905214018 26 212 3.2 0.0 0.00 0.00 0.03 55 1011.4
20260905213517 26 201 4.8 0.0 0.00 0.00 0.03 61 1011.4
20260905213016 26 206 4.8 0.0 0.00 0.00 0.03 59 1011.4
20260905212515 26 133 4.8 0.0 0.00 0.00 0.03 61 1011.5
20260905212013 25 172 4.8 0.0 0.00 0.00 0.03 60 1011.5
20260905211539 25 157 4.8 0.0 0.00 0.00 0.03 60 1011.5
20260905211014 25 206 4.8 0.0 0.00 0.00 0.03 61 1011.6
20260905210514 25 161 4.8 0.0 0.00 0.00 0.03 64 1011.6
20260905210013 25 177 3.2 0.0 0.00 0.00 0.03 66 1011.6
20260905205513 25 211 3.2 0.0 0.00 0.00 0.03 65 1011.7
20260905205013 25 143 3.2 0.0 0.00 0.00 0.03 67 1011.7
20260905204512 25 169 4.8 0.0 0.00 0.00 0.03 69 1011.7
20260905204015 25 176 4.8 0.0 0.00 0.00 0.03 70 1011.7
20260905203511 25 153 4.8 0.0 0.00 0.00 0.03 70 1011.7